RH
71 72 71 72 72 72 73 73 74 74 71 71 74 74 74 73 53 45 64 62 60 62 56 32 32 36 37 48 50 47 31 26 42 42 41 38 37 32 32 34 59 66 67 61 64
72 72 71 72 72 73 74 75 75 74 70 73 74 74 69 69 41 48 55 61 64 62 35 41 38 36 37 47 47 42 34 50 46 43 45 42 41 41 36 49 45 56 76 65 73
72 72 72 71 72 73 75 76 74 71 72 75 76 72 63 57 42 50 57 62 64 54 45 42 43 37 44 40 44 56 48 53 48 36 31 41 41 38 39 46 46 66 64 86 86
76 73 73 72 72 72 73 76 74 72 74 76 74 65 58 40 35 45 61 63 64 49 39 38 40 41 41 42 43 49 41 36 40 30 34 39 38 47 29 32 53 68 65 90 91
78 76 74 73 73 72 72 74 74 74 76 76 72 62 42 48 53 38 60 58 48 47 51 44 44 41 42 41 39 40 35 34 35 31 31 33 45 40 31 29 59 76 85 90 90
76 78 75 74 74 72 73 73 74 73 75 74 68 59 40 58 39 39 48 53 52 48 50 46 51 46 41 42 36 42 40 35 34 33 36 39 39 40 34 32 27 65 74 64 68
72 78 77 75 75 73 73 72 73 71 73 70 62 40 42 50 38 41 49 52 54 51 51 53 50 47 45 47 49 39 36 32 37 37 37 40 50 47 40 28 33 35 54 52 53
73 78 78 75 75 74 73 74 68 66 68 65 51 37 47 39 38 43 45 48 49 49 51 51 48 48 50 50 44 41 41 36 41 40 38 38 53 50 43 36 42 49 42 49 49
74 78 78 75 78 76 73 75 72 60 57 51 36 36 44 43 45 48 51 55 54 47 44 40 43 51 46 45 40 41 43 49 46 40 42 38 52 53 45 42 43 44 47 48 50
74 78 77 77 80 75 68 63 59 51 46 33 39 32 41 50 52 51 51 54 53 50 47 50 49 45 46 40 66 56 50 52 52 48 46 50 59 53 48 45 45 43 43 45 49
73 76 76 77 73 73 49 35 34 37 54 58 61 55 50 49 52 49 56 53 46 50 56 56 50 64 63 58 54 55 56 54 52 48 50 55 56 55 49 47 48 46 47 47 48
72 76 75 75 71 73 65 66 73 58 47 50 59 53 50 60 55 50 51 51 53 64 58 51 65 61 61 58 56 55 59 59 54 52 45 52 56 55 52 54 53 52 50 50 48
73 77 76 73 66 62 75 86 78 74 37 29 47 54 52 52 60 62 60 59 62 64 61 64 64 58 57 62 61 64 67 67 69 58 51 49 46 47 54 49 48 50 49 49 52
72 75 76 63 55 66 74 78 77 71 82 43 34 42 44 53 55 61 58 62 65 70 66 68 63 63 60 69 69 66 68 71 72 65 55 48 47 44 53 51 48 51 52 54 55
74 73 75 63 61 60 75 76 74 59 99 30 35 36 44 50 53 51 58 56 66 62 62 73 72 72 64 73 71 67 68 64 67 65 59 52 55 41 55 51 51 52 56 56 56
74 74 63 62 70 77 78 69 58 88 89 66 39 54 42 50 52 57 56 51 54 52 52 59 56 72 68 70 68 64 59 50 51 60 82 60 57 43 49 62 55 53 56 58 59
77 79 73 70 61 79 67 51 96 99 57 57 53 53 55 57 54 65 66 67 71 91 88 58 57 58 71 66 62 68 72 87 82 84 73 51 58 48 62 62 61 61 59 56 57
76 72 81 78 77 71 53 66 98 73 72 46 56 49 54 55 55 64 65 69 71 86 85 85 78 62 66 76 85 77 67 86 86 77 63 51 58 55 60 59 58 58 56 54 54
72 76 78 78 76 60 48 100 100 78 48 48 38 53 53 50 54 54 72 75 94 78 93 87 78 56 71 73 81 86 89 76 86 81 80 49 43 63 66 62 57 58 52 51 54
65 70 78 79 72 52 93 76 86 36 52 45 87 45 81 44 49 50 61 72 80 74 66 88 87 78 59 65 64 76 70 80 79 90 80 62 54 45 64 57 57 57 52 53 55
65 64 73 78 60 55 100 98 54 48 60 60 70 57 40 51 55 56 62 70 63 74 67 100 88 88 72 89 79 68 75 65 68 73 84 86 49 58 62 58 64 58 55 57 59
70 100 74 63 83 94 100 58 50 61 66 55 51 54 45 52 58 60 61 55 49 62 67 75 86 82 87 73 59 68 71 74 74 81 79 79 59 66 68 66 66 62 60 61 62
100 90 77 63 100 100 78 55 56 67 68 60 50 54 58 60 59 59 60 54 54 60 67 70 82 74 78 83 76 91 70 70 80 82 85 87 63 71 71 84 72 73 77 79 69
96 100 91 80 79 72 87 83 70 62 64 62 56 59 61 75 64 59 62 62 58 65 73 64 87 75 41 62 71 98 93 75 85 86 75 75 87 80 92 96 94 99 100 100 99
99 100 100 100 100 69 54 60 58 81 66 64 67 55 51 81 85 78 62 63 68 78 74 66 77 94 85 72 71 74 80 88 95 75 86 78 87 81 88 90 99 98 95 100 100
100 100 96 100 78 61 66 73 56 63 64 67 64 53 54 48 49 74 66 60 56 81 67 71 69 91 93 83 89 91 82 90 87 87 90 87 89 73 69 77 96 100 100 100 96
99 91 89 88 83 76 81 65 54 55 64 59 60 61 66 54 48 50 57 57 52 67 65 66 74 79 63 76 85 86 75 78 81 79 79 88 85 65 82 73 82 79 78 95 70
Wind_Speed
10 11 11 12 12 12 12 12 12 11 10 10 11 11 8 5 4 18 23 17 16 21 18 10 3 4 2 5 5 3 4 3 2 3 3 7 6 4 3 4 3 5 5 3 15
11 11 12 12 12 12 13 12 12 11 10 10 9 9 7 1 3 22 16 21 20 19 8 10 7 5 5 4 4 3 2 3 4 6 6 10 7 7 2 4 6 4 8 6 16
11 11 12 12 12 12 13 12 11 10 8 9 11 8 5 1 3 9 21 23 20 16 4 5 2 3 7 4 6 3 3 2 2 6 9 9 7 12 2 6 10 13 4 6 12
11 11 12 12 12 12 12 11 11 9 10 12 13 8 3 1 4 8 19 21 16 11 3 9 4 4 4 5 4 2 6 5 5 7 7 6 10 7 14 10 12 11 4 3 5
10 11 12 12 12 13 12 10 9 8 10 13 14 8 1 8 7 10 18 15 8 7 12 4 12 4 6 4 4 6 5 3 8 4 5 8 5 4 14 21 11 9 8 8 7
9 11 12 13 13 15 12 10 8 7 9 12 14 4 4 11 8 10 12 8 9 8 9 10 5 5 7 4 4 1 1 7 8 5 6 5 6 2 17 19 14 14 17 16 18
10 11 12 13 14 15 13 9 6 6 7 9 7 3 19 8 6 10 8 2 5 5 5 6 3 2 1 3 2 1 2 2 17 13 5 8 4 14 18 10 14 16 14 16 17
9 10 11 13 14 16 11 7 5 5 5 6 5 2 7 1 6 10 12 3 5 4 3 3 3 5 4 1 1 1 1 2 12 17 5 6 6 16 16 10 14 14 14 14 16
8 9 10 12 13 15 10 7 8 3 5 4 3 3 5 7 10 9 7 7 6 2 5 3 3 6 3 1 3 5 4 7 2 17 5 6 3 14 13 10 13 13 13 12 13
8 9 11 12 12 11 7 2 6 1 5 0 4 2 6 8 8 8 6 5 5 3 1 8 6 7 13 6 4 5 3 3 6 10 10 11 10 10 12 13 13 13 13 13 14
7 9 12 13 11 10 3 1 2 3 13 8 1 4 3 11 4 15 7 6 3 7 5 7 11 11 11 6 2 2 1 4 2 5 5 9 9 9 11 14 15 14 14 14 15
7 9 11 12 7 8 5 5 4 2 10 6 2 2 1 3 5 19 12 5 8 8 2 5 11 8 3 5 2 3 2 5 1 6 2 5 7 6 11 12 13 13 14 14 14
6 8 11 11 2 6 9 4 5 3 4 4 3 3 4 6 6 13 10 4 7 8 13 9 4 5 1 8 2 4 7 6 4 5 1 4 4 3 2 6 11 12 12 13 14
4 8 11 5 2 1 4 4 3 3 3 8 5 5 2 2 4 3 6 2 5 5 4 6 4 4 4 5 7 3 6 5 4 4 2 2 0 6 1 1 10 13 13 13 14
4 7 8 10 5 3 1 4 1 3 3 3 3 4 4 6 4 10 3 3 5 4 3 2 6 6 5 5 5 4 8 3 1 2 3 5 5 6 0 1 11 13 13 13 13
4 5 2 3 3 2 4 1 2 4 1 2 3 6 2 6 2 5 5 6 0 2 4 3 1 3 6 3 2 10 3 1 1 1 3 1 4 6 2 3 8 11 11 12 13
7 12 5 1 3 4 3 1 5 5 1 1 2 3 3 6 5 7 5 9 5 3 6 5 2 2 3 3 0 11 3 2 3 2 2 1 5 5 4 3 6 9 10 10 10
6 6 5 3 3 3 1 2 4 2 4 0 1 2 4 5 3 4 2 4 7 4 3 5 0 6 6 5 4 6 6 3 5 4 4 1 4 4 4 2 4 4 6 8 11
7 2 2 4 4 1 1 4 5 6 4 6 2 2 2 0 2 1 4 2 2 2 3 3 2 3 3 2 4 4 4 2 2 2 4 1 2 5 5 3 4 5 7 10 11
3 2 1 5 3 1 5 3 2 1 3 1 2 1 2 1 2 0 1 1 2 1 0 3 4 1 3 1 1 4 1 1 1 5 4 1 4 3 2 3 4 5 8 10 11
3 2 1 4 2 3 3 3 3 2 1 1 3 3 1 1 0 1 2 2 2 3 1 2 1 1 3 4 4 3 1 1 1 2 3 5 2 2 3 5 6 5 7 9 11
4 1 2 3 3 1 3 5 3 4 2 1 2 2 3 5 2 2 2 1 3 5 2 3 0 4 2 1 3 4 4 3 3 1 1 3 5 3 6 6 6 6 7 8 9
5 2 0 3 4 2 1 3 2 4 4 4 3 1 1 3 1 2 2 2 4 3 3 5 2 3 3 2 1 5 4 3 1 1 6 3 2 3 7 7 7 7 7 8 8
4 3 2 2 1 5 6 3 4 1 3 3 3 3 3 1 1 3 3 3 3 3 5 5 1 3 4 0 2 5 5 7 6 4 3 9 7 7 7 7 4 5 4 5 6
2 3 2 5 4 3 3 6 6 5 2 4 2 7 6 4 1 4 3 4 2 8 3 3 3 3 7 9 6 10 10 8 13 11 7 1 6 11 9 8 5 4 3 4 5
7 6 0 2 4 6 5 6 8 5 8 4 6 6 9 5 5 8 8 6 4 6 4 3 2 2 5 1 3 8 12 13 13 16 17 15 21 10 6 3 5 7 5 5 5
2 2 3 4 5 5 6 7 8 8 3 1 6 4 7 7 2 3 3 3 5 6 7 4 3 1 4 2 6 6 8 15 9 8 13 9 10 1 3 5 7 8 7 7 5
Wind_Direction
38 35 33 28 28 26 28 18 21 24 16 13 17 6 357 331 24 45 37 354 342 337 330 313 358 17 52 71 27 302 249 269 17 317 38 3 353 31 339 273 35 22 337 337 146
29 27 27 22 24 19 22 15 15 16 15 10 10 360 356 0 41 41 358 353 347 345 338 1 29 26 74 40 33 353 281 56 25 8 339 331 353 338 302 107 26 19 6 166 153
23 20 19 19 17 15 19 16 15 10 14 12 4 6 15 275 93 357 351 349 343 339 289 329 337 35 74 50 17 30 38 26 42 340 331 321 358 18 349 52 3 319 288 183 166
20 14 12 14 10 7 12 14 10 11 12 14 8 5 22 215 53 332 341 345 337 338 47 17 30 68 64 63 11 108 36 0 342 327 320 341 327 62 31 4 327 326 195 319 148
22 7 6 6 4 3 2 3 2 8 13 11 14 11 68 56 36 329 333 339 340 350 29 37 47 50 70 57 70 50 7 20 353 304 304 308 31 52 21 353 5 47 63 45 61
19 8 360 2 2 358 354 345 346 359 18 20 13 340 63 66 316 324 335 332 8 12 27 32 54 45 82 61 56 120 208 28 15 16 24 313 42 316 355 341 39 54 54 53 50
18 5 358 1 355 355 357 342 336 351 9 25 25 66 58 53 326 333 341 335 356 360 40 43 42 43 126 114 23 316 198 29 21 359 33 324 93 16 347 347 45 62 63 54 44
16 3 355 358 352 350 359 358 347 339 5 16 49 61 76 37 325 358 349 17 20 21 39 33 27 70 38 58 122 10 264 322 28 5 24 318 115 8 4 31 45 42 50 49 49
10 356 351 355 350 348 353 339 345 345 3 10 58 20 63 330 358 344 0 353 321 30 42 66 54 45 29 89 131 47 41 16 57 21 336 351 48 11 17 39 49 43 36 34 31
6 349 347 352 345 349 338 312 333 5 8 33 89 105 41 332 321 336 351 347 20 329 70 32 49 61 31 26 48 6 26 38 36 18 43 66 72 42 34 47 43 38 36 30 25
3 349 348 350 354 4 52 92 186 36 34 51 64 98 322 320 284 4 358 320 25 54 49 29 61 39 18 12 43 5 13 22 51 18 56 68 68 51 44 46 36 32 27 25 20
354 353 346 346 360 27 72 55 18 51 94 32 32 62 286 331 353 12 360 47 31 55 330 90 51 0 273 10 63 42 360 29 209 13 129 127 99 82 51 49 39 25 23 17 10
355 348 346 337 9 25 70 68 329 300 79 39 15 15 348 347 33 1 10 21 27 43 44 75 15 327 129 39 15 45 13 337 306 334 74 204 181 198 124 47 41 36 25 20 11
358 351 1 351 83 352 52 345 342 302 89 357 5 34 342 344 69 339 16 15 54 43 29 65 349 10 38 53 350 292 4 302 282 230 193 274 128 199 274 73 33 24 19 13 6
15 2 34 40 124 68 18 323 4 250 66 15 350 325 340 68 307 24 21 28 57 36 287 58 4 358 20 2 333 331 327 305 297 192 210 179 259 118 148 209 9 11 10 9 4
52 22 49 33 55 49 322 313 208 37 115 7 314 356 12 16 59 317 27 52 94 72 42 41 1 327 333 315 308 326 246 191 140 240 230 101 284 137 151 9 349 1 9 6 4
95 57 57 58 61 344 321 212 28 108 22 9 45 18 60 7 15 17 38 39 26 32 16 346 28 339 333 334 236 3 317 238 205 224 8 50 267 28 130 62 358 348 359 2 0
111 88 43 50 1 341 274 35 76 26 239 30 62 102 83 344 25 22 68 54 51 46 80 5 161 3 355 55 325 2 358 24 309 326 335 321 258 85 133 98 4 345 345 348 352
126 51 65 18 2 297 91 55 203 192 154 158 133 89 81 152 302 102 52 85 43 12 53 347 270 333 347 6 328 1 35 355 274 131 259 316 220 163 180 244 324 336 334 347 346
108 84 33 336 345 245 78 222 165 196 116 143 151 250 164 109 225 356 85 85 137 58 188 132 297 66 330 280 98 339 357 262 42 336 317 328 281 348 190 292 329 333 341 342 342
95 121 19 339 280 56 143 187 169 184 107 134 169 142 143 152 130 127 123 163 189 112 188 103 216 95 255 36 349 340 332 2 335 315 326 316 85 164 245 305 315 324 329 334 341
127 130 5 294 69 0 142 167 157 155 155 144 136 141 159 166 154 181 151 160 163 154 112 119 259 289 88 261 324 290 294 295 288 177 273 300 282 169 242 284 294 289 309 327 334
115 101 353 285 144 156 132 127 181 145 183 173 174 56 92 169 187 200 165 119 155 165 167 162 165 300 159 169 109 266 228 252 71 217 221 242 244 234 264 277 271 275 293 314 322
117 118 355 27 7 142 153 166 152 217 142 167 126 118 127 127 352 185 183 192 177 152 122 126 140 248 267 287 93 232 233 229 219 245 191 242 299 274 256 246 261 250 254 286 304
88 194 196 181 227 175 120 139 143 179 232 207 162 211 173 156 155 223 170 188 152 148 122 217 218 198 267 267 256 255 249 222 228 235 231 72 240 268 263 258 243 227 229 288 302
138 146 161 112 112 125 164 206 167 151 159 215 229 182 191 182 199 194 178 207 187 173 181 193 172 161 274 285 215 268 246 234 242 246 257 265 280 272 298 197 214 212 202 252 270
144 88 127 150 138 138 205 177 190 151 179 71 202 127 207 227 177 54 82 75 155 167 176 180 156 54 268 329 304 274 229 199 217 219 214 206 229 255 281 239 229 217 225 242 254